If you wish to contribute or participate in the discussions about articles you are invited to join SKYbrary as a registered user

 Actions

Antananarivo/Ivato International Airport

From SKYbrary Wiki

FMMI /
Revision as of 11:43, 5 February 2018 by Timo.Kouwenhoven (talk | contribs)
Airport
ICAO: FMMI – IATA: TNR
Summary
Name Antananarivo/Ivato International Airport
Region Africa
Territory Madagascar MG.gif
Location Antananarivo, Antananarivo Province
Serving Antananarivo
Elevation 1,279.55 m
4,198 ft
4,198 ft1,279.55 m
Coordinates 18° 47' 47.00" S, 47° 28' 34.00" E
Runways
Designator Length Width Surface ROPS
11/29 3100 m10,170.604 ft
45 m147.638 ft
ASP yes/yes


METAR
Observation FMMI 151400Z 11010KT 9999 FEW023 20/06 Q1021 NOSIG
Station Antananarivo / Ivato
Date/Time 15 August 2020 14:00:00
Wind direction 110°
Wind speed 10 kts
Lowest cloud amount few clouds
Temperature 20°C
Dew point 6°C
Humidity 40%
QNH 1021 hPa
Weather condition n/a

Description

International airport 16 km8.639 nm
16,000 m
52,493.438 ft
north of Antananarivo, the capital city of Madagascar.

Climatology

Antananarivo has a sub-tropical highland climate (Köppen climate classification Cwb) characterised by mild, dry winters and warm, rainy summers.

Maps

Terrain

Loading map...

Airport Layout

Loading map...


Accidents & Serious Incidents at or in vicinity of FMMI

None on SKYbrary